Погода в Турне

Бельгия     50°36′19″N   3°23′17″E
темп.,
°C
ветер,
м/с
пор.,
м/с
влажн.,
%
обл.,
%
осадки,
мм/ч
давл.,
гПа
погр.,
м
8 мая, сб
сб823:00+5всв1160100 0.0 101910
02:00+5юв346787 0.0 101854
05:00+5ю3878100 0.0 1016152
08:00+8ююв61366100 0.0 1014415
11:00+7ююв71591100 1.1 1012510
14:00+10ю81691100 2.1 1010566
17:00+19ююз9137062 0.1 10081414
20:00+17ююз7137688 0.1 1007651
9 мая, вс
вс923:00+12ю41291100 0.0 1007208
02:00+11ююв4119399 0.0 1006174
05:00+12ююв4138960 0.0 1003283
08:00+14ю61491100 1.6 1002433
11:00+18ю7138529 1.4 1002689
14:00+22ююз8126173 1.4 10011484
17:00+23ю8116896 0.2 10001617
20:00+19юз81480100 2.9 1000702
10 мая, пн
пн1023:00+14ю61295100 0.9 1002485
02:00+14ю61493100 1.5 1001555
05:00+14ююв41196100 0.3 999526
08:00+11зюз71393100 7.3 1002768
11:00+13юз7117981 0.1 10051010
14:00+17юз81160100 0.3 10071892
17:00+17юз61062100 0.3 10071769
20:00+14ю3778100 0.6 1008212
11 мая, вт
вт1123:00+11ююз3384100 0.0 100952
02:00+10ю3486100 0.0 100956
05:00+8ююв22936 0.0 100926
08:00+11ю238629 0.0 1009132
11:00+16ююз116865 0.0 1008701
14:00+18в2256100 0.6 10081374
17:00+14ююв5582100 2.3 1009377
20:00+12ююз3696100 3.6 1009169
12 мая, ср
ср1223:00+10зсз2294100 2.1 101131
02:00+9зюз349496 2.1 101177
05:00+7зюз359589 0.0 101286
08:00+9юз469246 0.0 1013239
11:00+13юз457367 0.1 10121060
14:00+15юз455796 0.4 10111824
17:00+14юз3464100 0.0 1010681
20:00+14ююв237299 0.0 101079